Theta_e
294 294 294 294 294 294 294 294 297 298 299 299 299 299 300 300 301 301 304 307 307 307 308 309 309 310 312 312 313 313 314 314 315 315 318 318 320 321 320 322 320 321 321 317 322 321 320 319 321 323 318 318 319 319
294 294 294 294 294 294 294 294 297 298 299 299 299 299 300 300 301 301 306 307 308 308 309 311 312 312 312 311 312 313 313 313 315 314 316 318 321 319 318 320 321 323 321 323 321 322 317 317 318 317 316 316 316 317
294 294 294 294 294 294 294 297 298 299 299 299 299 300 300 301 301 302 306 306 306 308 309 311 311 310 310 312 312 313 312 312 315 316 315 317 317 316 318 319 320 321 318 319 318 317 315 313 314 314 314 314 314 314
294 294 294 293 294 294 295 299 299 299 299 299 300 300 301 301 302 305 306 307 306 306 309 310 310 310 310 311 312 311 312 313 316 315 315 316 316 314 315 315 317 317 317 317 316 314 314 313 313 313 312 313 313 312
294 294 294 294 294 294 296 299 299 299 300 300 300 300 301 301 303 307 307 306 304 304 307 308 311 311 311 311 311 312 312 312 312 311 311 313 312 312 310 311 314 314 315 315 316 313 313 313 312 312 312 311 311 311
294 294 294 294 294 294 298 299 300 300 300 300 301 301 301 302 304 307 308 307 303 307 308 306 309 311 311 311 311 311 311 311 312 311 308 312 313 312 311 312 312 312 313 313 313 313 313 312 311 311 310 309 309 310
294 294 294 294 294 296 298 299 300 300 300 301 302 302 303 304 305 305 305 304 304 308 309 306 307 311 310 310 310 311 310 310 311 310 310 311 311 312 311 312 311 311 313 313 312 312 311 311 310 310 309 308 308 308
294 294 294 295 295 296 298 299 300 300 301 303 303 304 305 306 306 307 305 304 306 308 309 303 307 309 310 311 310 310 310 310 310 309 310 309 311 309 312 312 310 311 310 311 311 311 310 309 309 308 307 307 307 306
294 294 294 295 296 297 298 299 300 301 301 303 304 305 306 306 305 304 304 305 307 307 308 308 307 308 309 310 310 310 310 306 309 305 307 309 308 312 312 310 310 310 309 307 308 308 308 306 305 305 305 304 304 303
294 294 295 295 296 298 299 299 300 300 301 302 305 305 306 305 304 307 308 308 308 309 309 306 309 310 310 310 309 308 309 305 306 306 310 308 310 311 310 308 307 308 307 306 305 304 304 303 303 302 301 301 300 299
294 294 295 295 296 298 299 299 300 300 301 302 303 305 305 306 306 307 307 307 307 306 308 309 309 307 309 307 307 309 303 306 305 305 308 309 310 309 304 304 304 304 304 304 304 302 302 301 300 300 298 297 296 296
294 295 295 295 297 298 299 299 300 300 300 302 304 304 306 308 308 306 304 306 306 307 308 307 308 309 310 310 308 307 308 308 309 307 306 310 309 304 304 303 304 304 304 303 302 302 300 299 298 297 296 295 294 294
295 295 296 297 298 298 298 299 299 300 302 305 305 306 308 307 300 309 306 307 306 307 308 307 304 309 310 309 308 306 308 305 307 308 312 309 308 304 303 303 303 303 302 302 301 300 298 296 295 293 292 292 292 291
296 297 297 298 298 298 298 299 299 301 304 305 306 298 306 310 307 304 304 306 306 307 308 307 307 308 309 308 306 309 306 306 306 310 311 307 304 304 303 303 302 301 301 301 299 298 296 294 292 291 290 290 289 289
297 298 298 299 299 299 299 299 299 301 304 306 305 304 306 308 308 307 306 306 306 308 307 307 306 308 304 309 308 306 309 308 308 309 309 308 303 303 302 302 302 301 301 300 298 296 294 292 290 289 289 288 288 287
298 299 299 299 299 299 299 299 300 303 305 304 304 305 307 308 309 309 308 307 308 307 306 307 307 307 307 309 310 309 306 307 308 309 308 303 302 302 302 302 301 301 300 299 297 295 292 291 289 289 288 287 287 287
298 300 300 300 299 299 299 302 304 305 304 303 304 305 306 306 309 310 310 309 307 307 307 307 308 309 305 306 307 307 307 308 309 307 303 303 302 302 302 301 301 300 299 297 296 292 291 290 290 289 288 287 287 288
300 301 300 300 298 299 301 302 303 303 303 303 304 306 307 308 308 310 310 309 308 308 307 308 305 306 308 309 308 308 309 308 307 306 304 303 302 302 301 301 300 300 299 297 296 292 291 291 291 290 289 288 288 288
298 298 300 300 299 301 302 303 303 303 303 305 306 306 307 308 309 310 309 309 309 309 307 307 306 307 307 305 306 308 308 307 306 305 305 303 302 302 301 300 300 300 299 298 296 294 293 293 292 292 291 290 289 288
298 298 298 299 298 301 302 304 303 303 303 305 306 307 307 308 309 309 309 310 309 305 304 303 304 303 303 304 306 307 308 308 307 305 305 302 302 301 300 300 300 299 298 296 295 296 296 295 294 293 293 292 291 290
299 298 298 299 300 301 302 303 304 304 303 305 306 306 307 308 309 309 308 306 304 304 304 304 304 305 306 306 307 308 308 308 306 304 304 303 302 301 301 300 299 299 298 297 296 295 295 295 294 293 293 293 293 292
299 300 300 299 300 300 300 302 303 303 303 304 305 306 307 307 309 309 306 304 304 304 305 305 306 307 307 307 308 308 308 308 307 306 304 304 302 302 301 300 299 299 298 298 296 295 294 294 294 294 294 293 293 293
299 299 301 300 300 300 301 302 304 304 303 305 306 307 307 308 308 307 304 304 304 304 304 305 305 306 306 307 308 307 307 306 305 306 304 303 303 303 301 301 301 301 299 297 297 295 294 293 293 293 294 293 294 294
300 301 301 302 300 300 302 302 304 303 304 304 305 308 308 309 308 305 305 304 303 303 303 304 303 303 305 306 307 307 306 307 307 304 303 303 303 303 302 301 301 300 299 299 298 296 294 293 293 293 294 294 294 294
302 301 302 301 301 302 303 304 304 303 304 305 307 308 308 305 305 306 305 303 303 303 302 302 302 302 302 302 304 305 306 306 306 307 306 304 303 303 302 300 300 300 299 299 297 296 293 294 294 294 294 293 293 293
301 301 301 304 303 303 303 306 307 307 308 306 306 306 307 309 307 305 303 302 302 301 301 300 300 299 299 299 301 303 305 306 306 306 306 305 304 303 302 301 300 300 299 299 297 295 294 295 295 295 295 294 293 293
299 299 303 304 306 306 306 307 307 307 307 308 306 306 307 308 305 301 301 301 300 300 300 299 299 298 299 299 299 299 301 305 305 306 306 306 305 304 302 303 302 302 301 300 298 296 295 296 295 295 295 295 294 293
303 304 306 306 306 306 306 307 307 305 305 305 306 307 307 305 303 301 301 301 300 299 299 298 298 298 298 298 299 299 301 303 306 306 306 305 306 306 304 303 304 303 302 301 299 297 297 296 296 296 296 295 295 295
302 303 303 304 305 307 307 307 305 305 304 304 305 304 303 301 301 300 300 299 299 299 298 298 298 297 297 298 298 300 301 303 305 305 305 305 305 306 306 305 304 303 302 300 299 298 297 297 297 296 295 295 295 295
303 303 303 305 307 307 305 305 304 304 304 304 303 301 300 299 299 299 299 298 298 297 296 295 295 295 295 295 297 298 299 300 302 302 303 304 303 303 304 304 303 303 302 300 299 298 297 297 296 296 296 296 295 295
303 304 304 305 305 305 304 304 303 303 303 303 303 303 300 298 298 298 297 297 296 295 294 293 293 293 292 293 294 297 298 298 299 301 301 302 301 301 302 302 302 301 300 300 300 299 298 298 297 296 296 296 296 296
303 303 306 305 304 303 303 303 302 302 302 302 301 300 299 299 298 297 296 295 294 293 292 291 292 292 292 291 292 292 293 296 298 299 301 300 301 301 301 302 302 302 301 300 300 299 299 298 298 297 297 297 297 297
304 305 305 303 303 302 301 302 302 302 302 302 301 300 299 299 298 296 295 295 294 293 292 291 291 291 291 291 290 291 293 294 294 296 298 300 301 302 302 303 302 302 301 300 300 299 299 298 298 298 298 298 298 298
Wind_Speed
22 23 24 25 25 26 24 22 20 22 24 23 21 20 21 22 22 19 8 12 18 6 16 9 19 17 20 18 6 18 10 14 4 4 3 2 3 4 3 4 6 3 4 3 4 3 3 10 7 4 5 12 23 26
22 23 23 24 24 25 24 21 20 21 23 23 20 19 21 20 19 17 11 13 15 5 8 10 11 11 14 20 20 15 5 4 5 4 3 2 3 3 1 3 1 4 4 4 2 4 2 22 27 21 25 26 22 33
21 22 23 24 24 24 22 20 19 21 22 22 19 18 20 17 16 14 12 16 19 7 11 7 14 22 13 17 18 9 12 14 3 2 2 2 6 3 3 4 1 6 15 7 8 6 16 25 29 31 30 32 32 33
21 22 22 22 23 22 20 18 18 20 21 20 18 18 17 16 11 10 9 10 15 7 4 7 12 18 18 14 17 22 22 11 14 11 5 3 4 7 3 3 6 1 4 12 15 13 25 24 29 33 32 29 30 29
20 20 21 21 22 20 18 17 18 20 21 20 18 16 15 14 8 7 1 5 13 7 3 12 12 20 16 18 19 21 27 21 21 7 4 3 4 5 4 4 10 8 3 4 3 11 20 13 28 29 30 27 23 23
20 20 20 21 21 18 16 16 18 20 21 17 15 14 12 10 8 4 2 3 14 9 4 4 10 13 19 17 17 21 21 20 23 5 2 5 4 4 4 3 12 25 25 21 10 30 29 25 24 21 25 24 20 17
18 19 20 20 19 16 15 16 17 19 18 16 14 11 7 7 6 3 3 12 11 8 2 6 7 10 20 15 17 16 18 15 10 8 8 6 14 10 3 4 6 21 20 24 25 24 17 18 19 20 18 16 15 15
17 18 19 19 17 14 15 16 16 18 16 13 11 9 4 4 3 2 10 14 9 5 3 1 4 6 15 9 10 14 10 10 13 5 5 4 6 5 4 5 17 20 24 22 18 17 23 19 15 16 15 12 12 10
17 17 18 17 14 14 14 15 16 17 16 12 9 6 3 3 4 7 8 5 5 3 4 3 2 3 14 8 6 7 7 4 7 3 4 5 3 4 4 13 14 13 18 18 16 20 19 21 18 16 13 10 8 5
16 16 17 15 14 14 13 13 15 18 16 8 3 2 2 5 7 5 2 0 0 1 2 1 7 2 8 7 5 5 6 1 3 2 5 4 3 10 12 13 16 15 14 14 23 19 17 15 11 9 8 5 3 3
15 16 14 13 12 12 12 11 13 15 11 5 5 3 5 3 3 2 3 1 1 2 3 3 4 2 4 2 2 2 1 1 3 4 3 2 2 3 19 21 19 18 16 17 17 15 11 8 5 4 4 5 6 7
15 14 13 13 11 11 11 9 11 10 10 10 8 7 5 2 2 2 2 5 3 1 8 4 7 7 4 3 2 3 1 2 1 1 4 3 2 17 20 20 18 16 14 14 11 10 8 7 7 7 7 7 8 7
11 11 12 13 12 10 9 6 6 8 9 4 3 3 2 1 5 0 1 1 2 5 7 10 5 5 4 2 2 2 3 2 1 3 2 2 6 21 20 19 19 14 11 10 9 9 9 8 9 7 5 3 5 7
11 13 14 15 13 10 7 3 4 4 3 2 3 5 2 1 2 2 2 1 2 4 9 9 7 2 3 2 2 1 2 3 3 2 2 2 15 20 23 22 18 16 12 10 10 10 10 10 8 6 5 4 5 5
12 11 10 8 6 5 5 3 2 3 2 3 2 3 2 2 1 0 1 3 4 6 7 6 5 3 2 2 1 1 0 3 1 2 3 7 21 24 23 19 16 14 10 9 9 10 8 8 7 6 6 4 2 2
9 7 3 4 4 1 4 3 3 1 2 3 4 3 4 0 1 3 6 10 5 5 4 4 2 1 2 1 2 3 3 1 1 3 13 26 25 23 20 15 13 12 9 9 11 9 6 6 6 5 5 6 7 10
6 4 3 5 6 4 4 4 3 3 3 3 6 10 13 10 5 5 6 2 1 2 1 2 1 1 2 2 2 2 1 1 13 16 21 21 20 18 15 12 11 11 9 10 13 11 14 15 14 11 9 8 9 9
1 4 4 3 3 2 2 5 2 3 5 8 5 9 6 8 6 3 3 3 5 2 2 2 1 3 1 2 0 1 6 14 16 10 22 18 17 14 11 10 10 8 8 9 12 14 12 10 11 10 10 10 12 12
3 4 3 1 3 2 1 2 2 3 7 9 12 11 6 5 3 2 3 2 3 3 6 3 2 1 1 2 2 10 12 17 19 16 11 16 15 12 11 8 7 7 6 7 8 16 16 11 10 10 6 15 16 13
3 3 2 3 4 2 1 2 3 4 5 5 6 4 6 6 2 4 6 7 8 3 4 2 1 0 2 2 3 2 5 7 11 15 15 19 13 10 8 9 11 9 9 9 8 11 17 20 17 17 17 15 15 16
3 4 6 6 2 1 2 2 3 4 6 6 8 9 4 4 10 9 9 4 6 3 2 2 0 1 1 5 3 2 3 12 12 18 19 18 15 11 11 11 12 11 11 11 9 9 10 12 15 16 18 18 17 17
4 6 4 2 2 1 3 4 4 7 4 7 8 4 4 2 6 6 7 6 3 1 2 4 4 5 6 2 2 3 1 5 15 18 19 13 17 17 16 16 16 14 11 7 6 8 9 11 14 15 12 11 10 14
5 3 2 2 1 2 4 3 3 3 2 4 6 2 3 3 7 10 5 3 3 3 3 3 4 3 2 2 5 5 2 9 6 19 23 17 17 12 12 14 17 16 16 14 8 7 9 9 12 11 13 14 8 9
3 3 3 2 4 3 2 3 3 3 3 3 2 2 3 4 6 4 3 3 4 3 3 2 3 3 4 2 5 7 6 2 4 9 16 19 19 16 14 14 18 18 12 9 9 10 11 12 12 15 15 14 15 13
2 3 3 3 3 3 3 3 4 3 4 5 2 2 2 3 2 2 2 3 5 4 2 1 3 6 2 1 0 5 9 13 4 4 6 11 14 17 17 20 17 13 10 10 13 13 15 15 14 13 12 12 14 16
1 3 7 7 5 4 4 2 2 2 2 2 1 3 4 4 3 3 2 6 7 3 1 4 7 2 1 3 4 2 6 10 10 2 7 13 10 16 20 20 18 14 9 5 9 16 17 17 16 14 12 11 11 12
2 5 7 8 6 5 3 6 6 1 1 1 1 2 1 3 2 1 6 7 5 2 4 6 6 4 3 4 7 9 7 10 16 7 3 6 10 8 20 16 18 9 10 9 7 13 17 17 15 14 13 11 9 9
6 4 1 3 3 8 3 2 2 2 1 3 3 4 2 2 1 5 7 10 6 6 6 2 1 3 4 7 9 9 6 8 21 14 8 3 10 8 15 20 12 15 11 9 7 11 15 15 15 14 13 13 14 11
4 5 5 6 5 2 4 2 2 3 2 2 2 2 3 3 4 6 7 12 9 7 3 6 4 3 3 5 9 5 3 3 10 15 9 6 5 8 9 12 14 15 16 14 11 8 14 16 15 13 14 16 13 12
6 8 3 4 2 3 1 3 7 7 3 3 5 7 8 8 4 3 5 9 7 7 6 3 4 5 6 7 3 2 0 3 5 8 9 10 7 7 9 13 18 20 19 18 15 13 12 14 15 16 17 18 16 15
3 3 6 2 3 4 7 5 5 4 3 3 4 6 9 9 7 6 6 7 6 5 3 2 0 2 3 3 2 5 5 6 4 7 8 9 8 7 10 14 17 21 23 20 17 18 19 18 18 20 21 19 16 14
5 5 2 3 2 5 5 3 4 3 5 4 4 6 6 5 6 5 5 6 6 4 5 3 3 2 3 4 5 6 6 9 11 12 16 14 12 11 7 11 14 18 23 25 20 19 21 20 21 22 21 20 16 13
6 6 9 6 4 4 3 3 3 3 3 3 3 5 5 4 4 4 4 7 10 8 6 4 2 2 3 5 7 9 9 8 9 10 12 17 23 20 17 17 18 14 17 28 27 24 23 23 24 23 21 19 20 19
Wind_Direction
326 330 332 335 340 341 338 337 337 341 345 342 344 347 350 347 345 353 14 10 355 304 306 331 335 326 344 358 350 316 327 12 20 37 63 57 42 69 98 82 109 114 102 121 118 114 192 328 54 118 181 91 108 112
324 326 329 333 338 338 341 338 338 341 343 341 340 345 348 348 345 348 14 5 354 267 308 360 10 355 353 358 347 323 296 307 38 32 356 28 39 82 198 93 120 129 189 136 146 100 276 73 109 109 104 96 94 110
321 324 328 333 337 337 340 341 341 343 342 343 343 343 347 348 343 343 353 6 9 329 308 348 3 2 5 6 7 339 337 332 31 305 66 5 74 33 52 7 39 39 92 109 94 65 78 78 90 97 96 96 103 109
317 322 326 332 335 335 338 340 341 343 343 342 337 340 345 344 343 341 341 16 9 320 301 300 329 353 3 7 11 5 10 51 86 102 36 28 71 22 45 82 67 317 85 95 106 103 76 70 90 99 98 100 100 102
314 319 323 329 332 331 335 335 337 340 341 339 337 339 344 343 343 341 320 43 355 344 292 298 347 0 11 23 16 32 48 56 68 70 68 19 34 71 12 51 37 26 53 103 94 90 110 104 100 105 101 102 107 107
313 317 321 328 329 328 333 332 332 337 339 341 342 342 343 346 351 341 274 315 343 344 312 317 339 346 4 15 31 38 36 44 55 44 23 41 10 83 58 59 359 49 78 93 99 107 102 98 92 92 88 94 99 100
310 313 319 324 325 325 331 331 329 337 338 335 337 333 336 338 351 0 359 330 339 330 305 313 336 344 1 11 24 24 37 35 43 54 46 60 52 69 52 62 50 88 97 96 106 106 89 100 94 88 99 106 110 112
306 310 317 321 322 322 329 331 329 335 334 331 330 326 318 6 4 351 355 351 351 341 308 348 292 347 4 349 354 3 4 28 26 38 27 30 43 69 73 64 81 85 90 93 100 105 111 109 111 100 108 116 115 116
301 309 314 317 319 324 326 328 330 333 332 321 323 318 308 358 350 319 320 312 336 349 338 350 8 303 353 358 339 352 14 33 23 43 16 56 358 50 113 95 97 99 96 95 104 107 116 107 103 106 116 108 109 103
297 307 311 311 318 325 326 326 329 337 340 329 312 335 282 317 305 320 350 260 237 245 271 228 351 307 344 345 344 0 12 39 41 296 84 65 28 84 90 81 97 105 118 127 107 93 98 93 90 80 69 59 31 338
298 303 303 306 317 325 327 325 333 347 355 9 360 307 324 326 334 324 322 357 350 21 358 340 329 287 333 36 281 1 205 328 70 280 94 80 345 94 106 97 98 100 100 98 102 98 89 83 72 36 8 350 336 325
295 295 298 304 311 317 325 322 340 357 345 327 319 310 330 343 333 30 348 342 45 340 349 355 332 325 317 314 35 311 49 41 155 166 76 102 262 124 113 109 106 102 99 94 79 67 41 15 6 350 336 323 319 317
286 292 300 305 307 303 311 309 338 340 334 324 322 298 292 287 28 281 17 6 345 351 350 333 331 323 310 296 304 33 44 247 48 54 90 158 166 131 129 121 116 110 105 92 66 31 17 12 356 358 357 339 310 307
286 295 301 296 297 284 278 282 323 332 328 302 284 317 191 215 74 180 201 263 304 341 337 331 301 283 297 341 207 50 251 72 57 86 119 234 149 134 131 126 123 118 103 80 50 22 10 6 16 15 15 342 321 320
297 312 311 323 311 258 238 254 273 301 285 271 269 250 242 165 140 324 281 271 262 280 302 316 296 257 299 339 307 33 146 67 68 168 149 147 136 131 128 127 126 119 100 69 38 16 18 12 15 21 18 8 44 86
335 349 36 330 305 293 263 249 211 188 259 253 242 299 279 315 118 231 255 258 262 280 222 244 278 10 329 44 2 1 81 142 249 109 144 133 125 127 129 130 123 116 94 67 36 36 49 40 45 59 55 69 102 113
337 76 8 343 335 266 243 157 164 233 249 238 244 246 258 277 264 305 238 260 233 139 307 306 14 88 6 54 67 12 141 197 123 121 145 135 132 132 131 129 126 120 102 75 49 68 85 81 67 65 78 86 106 115
158 317 295 292 324 174 197 192 198 251 255 247 257 256 242 249 236 271 208 194 150 120 15 59 30 34 91 115 6 53 92 125 117 117 143 137 141 141 146 142 137 132 115 100 67 99 101 88 70 69 83 97 105 113
257 230 225 227 164 193 202 181 219 266 257 281 276 256 275 274 240 260 201 185 195 179 130 134 73 68 90 55 16 93 129 148 150 152 167 163 153 149 144 142 147 150 131 127 96 98 96 89 78 74 101 81 99 110
309 200 150 172 171 178 248 205 211 252 271 298 303 292 304 277 211 146 137 155 144 74 56 51 51 292 223 183 170 85 90 182 197 153 153 162 163 160 158 172 171 165 143 132 123 115 108 103 94 94 86 86 92 83
89 112 127 140 141 247 270 292 250 248 294 290 290 326 256 251 148 142 131 106 66 42 92 17 88 163 300 158 214 354 124 177 182 188 176 172 179 171 176 177 170 173 164 149 137 127 129 130 123 114 106 95 88 84
102 113 107 86 93 325 280 249 256 297 269 274 297 249 270 181 143 128 121 64 84 92 102 68 63 80 79 83 65 106 45 243 229 212 202 187 183 194 203 192 182 189 191 176 162 155 151 142 146 141 127 101 108 101
147 143 136 133 133 219 266 266 255 237 257 283 304 246 248 148 134 137 81 81 114 117 103 94 77 95 80 125 164 200 57 48 86 192 193 196 197 194 203 204 204 209 200 196 188 176 166 157 171 171 156 125 118 127
169 188 174 185 195 252 264 232 232 254 266 267 244 259 52 69 59 84 95 115 135 123 126 138 10 15 218 139 162 213 213 291 41 163 199 205 205 207 211 214 201 203 206 191 185 177 172 161 156 152 157 157 157 149
221 209 186 211 209 241 231 237 200 202 240 212 274 84 123 95 93 88 112 131 148 149 139 20 338 329 338 240 246 190 190 232 249 49 173 183 197 206 200 197 201 209 209 198 188 184 176 168 158 155 153 150 165 175
214 215 185 202 200 199 222 237 213 218 53 36 27 266 207 185 106 86 99 81 133 124 55 4 352 318 262 328 308 282 207 224 228 185 126 172 174 214 201 189 195 198 207 234 214 187 181 176 171 168 165 165 166 165
247 264 223 223 217 222 241 239 238 139 135 116 336 310 18 67 79 168 142 134 114 92 331 346 2 15 23 348 318 305 266 227 212 203 175 172 191 198 206 216 218 226 207 203 195 192 183 177 178 185 188 187 191 188
242 277 264 264 267 225 211 263 96 87 56 348 330 15 66 58 130 165 198 198 224 239 255 278 47 14 333 313 321 324 286 233 208 217 230 217 191 215 214 224 232 231 220 212 201 187 188 188 186 193 200 198 181 177
236 243 305 285 278 133 41 45 110 104 106 345 103 66 89 101 141 152 188 196 228 266 297 201 221 236 253 290 305 326 318 235 207 207 209 211 189 198 191 195 204 218 219 204 199 197 199 201 202 206 195 184 189 195
231 229 257 272 16 88 267 79 103 115 130 115 125 114 95 118 117 197 217 215 237 281 288 204 256 272 261 274 226 179 193 125 144 170 172 187 179 144 166 191 199 207 210 204 199 191 195 200 197 182 184 189 196 203
216 232 215 118 92 117 118 123 126 134 145 142 145 155 150 158 188 236 265 276 284 292 208 157 18 323 305 317 298 224 236 252 240 208 193 194 197 170 167 180 195 200 201 210 211 204 196 193 191 193 197 204 212 217
200 213 180 117 132 151 167 169 178 199 165 173 141 148 153 171 191 214 220 253 269 251 286 214 218 268 311 309 313 291 279 256 251 250 230 216 204 204 194 183 191 206 207 212 221 221 215 212 207 206 211 211 214 213
184 116 112 117 136 154 172 194 189 192 174 125 119 158 173 193 204 234 250 233 248 262 273 285 219 274 308 312 301 299 297 287 276 262 250 238 230 223 211 207 212 216 213 211 219 222 219 220 219 217 222 225 224 224